TAP1456 LPPT-GMMX

Flight info

Callsign TAP1456
Flight time 1h 21m
Altitude 35000
Route DUZOP DCT AMSEL UR722 MABAP
Aircraft A21N/M-SDE3FGHIRWY/LB1

Departure

Time 2026-05-08 20:32
Airport Lisbon Humberto Delgado Airport (LPPT)

Arrival

Time 2026-05-08 21:54
Airport Marrakesh Menara Airport (GMMX)
Time Latitude Longitude Altitude Speed Heading
2026-05-08 19:40 38.76937 -9.13069 332 ft 0 kts 80°
2026-05-08 20:10 38.76936 -9.13079 332 ft 0 kts 80°
2026-05-08 20:10 38.76934 -9.13094 332 ft 2 kts 66°
2026-05-08 20:11 38.76926 -9.13110 333 ft 2 kts 51°
2026-05-08 20:11 38.76916 -9.13123 333 ft 2 kts 34°
2026-05-08 20:11 38.76902 -9.13132 333 ft 2 kts 18°
2026-05-08 20:11 38.76888 -9.13136 333 ft 2 kts
2026-05-08 20:12 38.76877 -9.13135 333 ft 0 kts 350°
2026-05-08 20:12 38.76870 -9.13133 333 ft 0 kts 348°
2026-05-08 20:14 38.76878 -9.13136 333 ft 2 kts 347°
2026-05-08 20:15 38.76901 -9.13142 332 ft 4 kts 348°
2026-05-08 20:15 38.76939 -9.13153 333 ft 6 kts 347°
2026-05-08 20:15 38.76988 -9.13166 333 ft 7 kts 347°
2026-05-08 20:15 38.77024 -9.13214 332 ft 8 kts 279°
2026-05-08 20:16 38.77036 -9.13287 332 ft 8 kts 311°
2026-05-08 20:16 38.77097 -9.13322 331 ft 10 kts 350°
2026-05-08 20:16 38.77179 -9.13340 329 ft 12 kts 349°
2026-05-08 20:16 38.77267 -9.13363 330 ft 12 kts 348°
2026-05-08 20:17 38.77356 -9.13386 331 ft 12 kts 350°
2026-05-08 20:17 38.77440 -9.13407 332 ft 12 kts 347°
2026-05-08 20:17 38.77522 -9.13429 334 ft 11 kts 348°
2026-05-08 20:17 38.77597 -9.13449 336 ft 10 kts 348°
2026-05-08 20:18 38.77662 -9.13467 338 ft 8 kts 348°
2026-05-08 20:18 38.77714 -9.13482 340 ft 6 kts 346°
2026-05-08 20:18 38.77755 -9.13496 342 ft 5 kts 340°
2026-05-08 20:18 38.77768 -9.13526 345 ft 3 kts 273°
2026-05-08 20:19 38.77748 -9.13565 346 ft 8 kts 217°
2026-05-08 20:19 38.77741 -9.13570 346 ft 0 kts 208°
2026-05-08 20:19 38.77740 -9.13571 346 ft 1 kts 208°
2026-05-08 20:19 38.77705 -9.13592 346 ft 8 kts 203°
2026-05-08 20:20 38.77690 -9.13600 346 ft 1 kts 199°
2026-05-08 20:20 38.77657 -9.13598 345 ft 8 kts 173°
2026-05-08 20:20 38.77608 -9.13586 343 ft 2 kts 167°
2026-05-08 20:20 38.77580 -9.13578 342 ft 5 kts 168°
2026-05-08 20:21 38.77535 -9.13565 340 ft 4 kts 167°
2026-05-08 20:21 38.77525 -9.13561 339 ft 0 kts 167°
2026-05-08 20:21 38.77525 -9.13562 339 ft 0 kts 167°
2026-05-08 20:22 38.77525 -9.13561 339 ft 0 kts 167°
2026-05-08 20:22 38.77525 -9.13562 339 ft 0 kts 167°
2026-05-08 20:23 38.77525 -9.13561 339 ft 0 kts 167°
2026-05-08 20:23 38.77525 -9.13562 339 ft 0 kts 167°
2026-05-08 20:24 38.77525 -9.13561 339 ft 0 kts 167°
2026-05-08 20:24 38.77525 -9.13562 339 ft 0 kts 167°
2026-05-08 20:25 38.77525 -9.13561 339 ft 0 kts 167°
2026-05-08 20:25 38.77525 -9.13562 339 ft 0 kts 167°
2026-05-08 20:25 38.77525 -9.13561 339 ft 0 kts 167°
2026-05-08 20:26 38.77522 -9.13561 339 ft 1 kts 167°
2026-05-08 20:26 38.77496 -9.13554 338 ft 6 kts 168°
2026-05-08 20:26 38.77480 -9.13510 336 ft 8 kts 56°
2026-05-08 20:27 38.77530 -9.13457 335 ft 10 kts 29°
2026-05-08 20:27 38.77598 -9.13420 335 ft 11 kts 22°
2026-05-08 20:27 38.77671 -9.13380 335 ft 11 kts 24°
2026-05-08 20:27 38.77747 -9.13346 335 ft 11 kts
2026-05-08 20:28 38.77820 -9.13363 337 ft 9 kts 348°
2026-05-08 20:28 38.77882 -9.13379 339 ft 9 kts 348°
2026-05-08 20:28 38.77949 -9.13396 342 ft 10 kts 348°
2026-05-08 20:28 38.78029 -9.13411 345 ft 11 kts
2026-05-08 20:29 38.78114 -9.13372 346 ft 14 kts 22°
2026-05-08 20:29 38.78212 -9.13322 347 ft 12 kts 22°
2026-05-08 20:29 38.78299 -9.13277 347 ft 10 kts 21°
2026-05-08 20:29 38.78368 -9.13238 347 ft 11 kts 24°
2026-05-08 20:30 38.78449 -9.13219 347 ft 11 kts 353°
2026-05-08 20:30 38.78511 -9.13252 351 ft 8 kts 328°
2026-05-08 20:30 38.78538 -9.13295 353 ft 4 kts 285°
2026-05-08 20:30 38.78540 -9.13318 354 ft 1 kts 268°
2026-05-08 20:31 38.78538 -9.13331 355 ft 1 kts 254°
2026-05-08 20:31 38.78529 -9.13359 357 ft 6 kts 236°
2026-05-08 20:31 38.78451 -9.13421 360 ft 29 kts 203°
2026-05-08 20:31 38.78037 -9.13638 361 ft 96 kts 205°
2026-05-08 20:32 38.77230 -9.14069 350 ft 153 kts 203°
2026-05-08 20:32 38.76202 -9.14614 812 ft 161 kts 199°
2026-05-08 20:32 38.75158 -9.15164 1410 ft 165 kts 198°
2026-05-08 20:32 38.74108 -9.15717 2107 ft 165 kts 198°
2026-05-08 20:33 38.73021 -9.16292 2486 ft 175 kts 198°
2026-05-08 20:33 38.71867 -9.16915 2757 ft 190 kts 199°
2026-05-08 20:33 38.70605 -9.17605 3084 ft 204 kts 199°
2026-05-08 20:33 38.69233 -9.18349 3366 ft 223 kts 199°
2026-05-08 20:34 38.67696 -9.18894 3653 ft 237 kts 177°
2026-05-08 20:34 38.66123 -9.18300 4342 ft 239 kts 156°
2026-05-08 20:34 38.63128 -9.16447 5658 ft 246 kts 156°
2026-05-08 20:35 38.61586 -9.15515 6385 ft 247 kts 158°
2026-05-08 20:35 38.60028 -9.14618 7139 ft 247 kts 158°
2026-05-08 20:35 38.58440 -9.13731 7732 ft 253 kts 159°
2026-05-08 20:35 38.56838 -9.12825 8438 ft 254 kts 159°
2026-05-08 20:36 38.55226 -9.11946 9078 ft 257 kts 160°
2026-05-08 20:36 38.53540 -9.11046 9621 ft 264 kts 160°
2026-05-08 20:36 38.51876 -9.10139 10273 ft 265 kts 160°
2026-05-08 20:36 38.50120 -9.09186 10592 ft 280 kts 160°
2026-05-08 20:37 38.48287 -9.08196 10869 ft 294 kts 160°
2026-05-08 20:37 38.46364 -9.07161 11156 ft 308 kts 160°
2026-05-08 20:37 38.44351 -9.06082 11413 ft 322 kts 160°
2026-05-08 20:37 38.42244 -9.04954 11880 ft 330 kts 160°
2026-05-08 20:38 38.40116 -9.03812 12465 ft 332 kts 161°
2026-05-08 20:38 38.38002 -9.02683 13054 ft 334 kts 161°
2026-05-08 20:38 38.35841 -9.01526 13605 ft 336 kts 161°
2026-05-08 20:38 38.33681 -9.00372 14169 ft 338 kts 161°
2026-05-08 20:39 38.31534 -8.99229 14712 ft 339 kts 161°
2026-05-08 20:39 38.29352 -8.98067 15249 ft 341 kts 161°
2026-05-08 20:39 38.27147 -8.96896 15738 ft 343 kts 161°
2026-05-08 20:39 38.24956 -8.95732 16216 ft 346 kts 161°
2026-05-08 20:40 38.22737 -8.94553 16720 ft 347 kts 161°
2026-05-08 20:40 38.20484 -8.93356 17193 ft 349 kts 162°
2026-05-08 20:40 38.18259 -8.92175 17652 ft 350 kts 162°
2026-05-08 20:40 38.16010 -8.91030 18120 ft 350 kts 163°
2026-05-08 20:41 38.13717 -8.89932 18575 ft 351 kts 163°
2026-05-08 20:41 38.11414 -8.88841 18984 ft 354 kts 163°
2026-05-08 20:41 38.09103 -8.87739 19390 ft 356 kts 163°
2026-05-08 20:41 38.06794 -8.86632 19801 ft 357 kts 163°
2026-05-08 20:42 38.04488 -8.85527 20168 ft 360 kts 163°
2026-05-08 20:42 38.02126 -8.84393 20539 ft 362 kts 163°
2026-05-08 20:42 37.99770 -8.83258 20925 ft 364 kts 163°
2026-05-08 20:42 37.97377 -8.82110 21307 ft 366 kts 163°
2026-05-08 20:43 37.95017 -8.80977 21655 ft 367 kts 163°
2026-05-08 20:43 37.92617 -8.79824 21993 ft 369 kts 163°
2026-05-08 20:43 37.90228 -8.78681 22319 ft 371 kts 163°
2026-05-08 20:43 37.87793 -8.77512 22647 ft 374 kts 163°
2026-05-08 20:44 37.85363 -8.76348 23014 ft 375 kts 163°
2026-05-08 20:44 37.82899 -8.75170 23358 ft 377 kts 163°
2026-05-08 20:44 37.80467 -8.74007 23702 ft 378 kts 163°
2026-05-08 20:44 37.77988 -8.72820 24008 ft 380 kts 164°
2026-05-08 20:45 37.75518 -8.71636 24335 ft 381 kts 164°
2026-05-08 20:45 37.73044 -8.70451 24629 ft 383 kts 165°
2026-05-08 20:45 37.70553 -8.69260 24907 ft 385 kts 165°
2026-05-08 20:45 37.68022 -8.68053 25206 ft 386 kts 165°
2026-05-08 20:46 37.65525 -8.66868 25548 ft 385 kts 165°
2026-05-08 20:46 37.63009 -8.65669 25854 ft 386 kts 166°
2026-05-08 20:46 37.60507 -8.64480 26079 ft 388 kts 166°
2026-05-08 20:46 37.57966 -8.63273 26309 ft 391 kts 166°
2026-05-08 20:47 37.55416 -8.62062 26546 ft 392 kts 166°
2026-05-08 20:47 37.52858 -8.60848 26813 ft 392 kts 167°
2026-05-08 20:47 37.50305 -8.59638 27071 ft 393 kts 167°
2026-05-08 20:47 37.47770 -8.58438 27330 ft 393 kts 167°
2026-05-08 20:48 37.45215 -8.57224 27583 ft 394 kts 167°
2026-05-08 20:48 37.42624 -8.56001 27793 ft 396 kts 167°
2026-05-08 20:48 37.40073 -8.54794 28044 ft 396 kts 168°
2026-05-08 20:48 37.37491 -8.53572 28379 ft 394 kts 168°
2026-05-08 20:49 37.34925 -8.52354 28753 ft 392 kts 168°
2026-05-08 20:49 37.32391 -8.51158 29047 ft 391 kts 168°
2026-05-08 20:49 37.29854 -8.49962 29394 ft 389 kts 168°
2026-05-08 20:49 37.27331 -8.48773 29698 ft 388 kts 169°
2026-05-08 20:50 37.24800 -8.47582 29998 ft 386 kts 169°
2026-05-08 20:50 37.22292 -8.46397 30281 ft 385 kts 169°
2026-05-08 20:50 37.19789 -8.45226 30590 ft 384 kts 170°
2026-05-08 20:50 37.17319 -8.44065 30869 ft 383 kts 170°
2026-05-08 20:51 37.14835 -8.42902 31149 ft 381 kts 170°
2026-05-08 20:51 37.12337 -8.41729 31475 ft 379 kts 170°
2026-05-08 20:51 37.09863 -8.40567 31696 ft 380 kts 170°
2026-05-08 20:51 37.07417 -8.39427 31878 ft 381 kts 170°
2026-05-08 20:52 37.04910 -8.38253 32153 ft 380 kts 170°
2026-05-08 20:52 37.02459 -8.37107 32463 ft 377 kts 170°
2026-05-08 20:52 37.00017 -8.35963 32765 ft 376 kts 171°
2026-05-08 20:52 36.97547 -8.34811 32987 ft 375 kts 171°
2026-05-08 20:53 36.95123 -8.33678 33171 ft 376 kts 171°
2026-05-08 20:53 36.92673 -8.32539 33330 ft 376 kts 171°
2026-05-08 20:53 36.90228 -8.31398 33544 ft 376 kts 171°
2026-05-08 20:53 36.87766 -8.30248 33754 ft 376 kts 172°
2026-05-08 20:54 36.85332 -8.29114 33899 ft 378 kts 171°
2026-05-08 20:54 36.82874 -8.27974 34072 ft 378 kts 171°
2026-05-08 20:54 36.80387 -8.26823 34264 ft 378 kts 171°
2026-05-08 20:54 36.77931 -8.25679 34449 ft 377 kts 171°
2026-05-08 20:55 36.75500 -8.24552 34594 ft 378 kts 171°
2026-05-08 20:55 36.70547 -8.22253 34757 ft 383 kts 171°
2026-05-08 20:56 36.65506 -8.19922 34843 ft 385 kts 171°
2026-05-08 20:56 36.60498 -8.17603 34847 ft 385 kts 171°
2026-05-08 20:57 36.55490 -8.15285 34853 ft 384 kts 171°
2026-05-08 20:57 36.50477 -8.12971 34861 ft 385 kts 171°
2026-05-08 20:58 36.45450 -8.10657 34858 ft 386 kts 171°
2026-05-08 20:58 36.40412 -8.08340 34863 ft 387 kts 172°
2026-05-08 20:59 36.35380 -8.06030 34862 ft 384 kts 171°
2026-05-08 20:59 36.30387 -8.03737 34859 ft 386 kts 171°
2026-05-08 21:00 36.25331 -8.01420 34864 ft 386 kts 171°
2026-05-08 21:00 36.20315 -7.99125 34865 ft 386 kts 171°
2026-05-08 21:01 36.15292 -7.96828 34866 ft 386 kts 171°
2026-05-08 21:01 36.10253 -7.94528 34866 ft 385 kts 171°
2026-05-08 21:02 36.05235 -7.92242 34865 ft 385 kts 171°
2026-05-08 21:02 36.00167 -7.90131 34873 ft 382 kts 175°
2026-05-08 21:03 35.95064 -7.88653 34874 ft 375 kts 179°
2026-05-08 21:03 35.89932 -7.87781 34874 ft 369 kts 184°
2026-05-08 21:04 35.84845 -7.87301 34875 ft 368 kts 185°
2026-05-08 21:04 35.79725 -7.86819 34878 ft 368 kts 185°
2026-05-08 21:05 35.74630 -7.86347 34881 ft 369 kts 185°
2026-05-08 21:05 35.69500 -7.85877 34882 ft 370 kts 185°
2026-05-08 21:06 35.64374 -7.85412 34881 ft 369 kts 185°
2026-05-08 21:06 35.59227 -7.84945 34880 ft 370 kts 185°
2026-05-08 21:07 35.54114 -7.84485 34882 ft 370 kts 185°
2026-05-08 21:07 35.48965 -7.84020 34894 ft 372 kts 185°
2026-05-08 21:08 35.43824 -7.83559 34884 ft 370 kts 185°
2026-05-08 21:08 35.38714 -7.83106 34878 ft 370 kts 185°
2026-05-08 21:09 35.33559 -7.82675 34887 ft 371 kts 185°
2026-05-08 21:09 35.28396 -7.82240 34889 ft 371 kts 186°
2026-05-08 21:10 35.23266 -7.81808 34886 ft 371 kts 185°
2026-05-08 21:10 35.18109 -7.81374 34893 ft 372 kts 185°
2026-05-08 21:11 35.12947 -7.80939 34895 ft 372 kts 185°
2026-05-08 21:11 35.07757 -7.80503 34895 ft 373 kts 185°
2026-05-08 21:12 35.02595 -7.80068 34891 ft 374 kts 185°
2026-05-08 21:12 34.97409 -7.79635 34885 ft 373 kts 185°
2026-05-08 21:13 34.92201 -7.79197 34896 ft 374 kts 185°
2026-05-08 21:13 34.87032 -7.78765 34889 ft 374 kts 185°
2026-05-08 21:14 34.81797 -7.78327 34889 ft 375 kts 185°
2026-05-08 21:14 34.76588 -7.77893 34891 ft 376 kts 185°
2026-05-08 21:15 34.71365 -7.77483 34889 ft 375 kts 186°
2026-05-08 21:15 34.66143 -7.77122 34907 ft 378 kts 186°
2026-05-08 21:16 34.60908 -7.76760 34889 ft 377 kts 186°
2026-05-08 21:16 34.55655 -7.76397 34887 ft 378 kts 186°
2026-05-08 21:17 34.50391 -7.76032 34899 ft 380 kts 186°
2026-05-08 21:17 34.45099 -7.75663 34896 ft 380 kts 186°
2026-05-08 21:18 34.39819 -7.75294 34904 ft 381 kts 186°
2026-05-08 21:18 34.34539 -7.74929 34911 ft 381 kts 186°
2026-05-08 21:19 34.29240 -7.74560 34898 ft 381 kts 186°
2026-05-08 21:19 34.23965 -7.74195 34897 ft 382 kts 186°
2026-05-08 21:20 34.18628 -7.73827 34902 ft 384 kts 186°
2026-05-08 21:20 34.13305 -7.73349 34901 ft 385 kts 185°
2026-05-08 21:20 34.10597 -7.73094 35043 ft 385 kts 185°
2026-05-08 21:21 34.07923 -7.72843 34953 ft 385 kts 185°
2026-05-08 21:21 34.02596 -7.72346 34917 ft 385 kts 185°
2026-05-08 21:22 33.97263 -7.71851 34906 ft 386 kts 185°
2026-05-08 21:22 33.91891 -7.71356 34907 ft 387 kts 185°
2026-05-08 21:23 33.86508 -7.70861 34912 ft 388 kts 185°
2026-05-08 21:23 33.81119 -7.70365 34910 ft 389 kts 185°
2026-05-08 21:24 33.75726 -7.69870 34913 ft 388 kts 185°
2026-05-08 21:24 33.70334 -7.69374 34906 ft 389 kts 185°
2026-05-08 21:25 33.64920 -7.68879 34914 ft 389 kts 185°
2026-05-08 21:25 33.59522 -7.68502 34911 ft 385 kts 189°
2026-05-08 21:26 33.54268 -7.69025 34926 ft 377 kts 197°
2026-05-08 21:26 33.49214 -7.70509 34920 ft 369 kts 204°
2026-05-08 21:27 33.44516 -7.72868 34928 ft 365 kts 211°
2026-05-08 21:27 33.40081 -7.75741 34932 ft 364 kts 212°
2026-05-08 21:28 33.35644 -7.78655 34931 ft 364 kts 213°
2026-05-08 21:28 33.31203 -7.81579 34927 ft 364 kts 213°
2026-05-08 21:29 33.26750 -7.84518 34934 ft 365 kts 213°
2026-05-08 21:29 33.22310 -7.87450 34931 ft 365 kts 213°
2026-05-08 21:30 33.17872 -7.90376 34928 ft 365 kts 213°
2026-05-08 21:30 33.13411 -7.93315 34935 ft 366 kts 213°
2026-05-08 21:31 33.08944 -7.96256 34659 ft 365 kts 213°
2026-05-08 21:31 33.06741 -7.97705 34388 ft 363 kts 213°
2026-05-08 21:31 33.04529 -7.99156 34117 ft 361 kts 213°
2026-05-08 21:31 33.02349 -8.00585 33851 ft 359 kts 213°
2026-05-08 21:32 33.00139 -8.01990 33581 ft 359 kts 211°
2026-05-08 21:32 32.97873 -8.03265 33315 ft 362 kts 209°
2026-05-08 21:32 32.95532 -8.04419 33059 ft 365 kts 207°
2026-05-08 21:32 32.93166 -8.05429 32698 ft 368 kts 204°
2026-05-08 21:33 32.90694 -8.06327 32195 ft 370 kts 202°
2026-05-08 21:33 32.88170 -8.07077 31565 ft 374 kts 199°
2026-05-08 21:33 32.85626 -8.07673 30896 ft 377 kts 197°
2026-05-08 21:33 32.83024 -8.08135 30196 ft 379 kts 195°
2026-05-08 21:34 32.80423 -8.08584 29501 ft 380 kts 195°
2026-05-08 21:34 32.77784 -8.09041 28799 ft 382 kts 195°
2026-05-08 21:34 32.75165 -8.09483 28069 ft 385 kts 195°
2026-05-08 21:34 32.72517 -8.09925 27392 ft 385 kts 194°
2026-05-08 21:35 32.69886 -8.10356 26904 ft 381 kts 194°
2026-05-08 21:35 32.67283 -8.10781 26421 ft 377 kts 194°
2026-05-08 21:35 32.64683 -8.11202 25941 ft 373 kts 194°
2026-05-08 21:35 32.62139 -8.11617 25457 ft 370 kts 194°
2026-05-08 21:36 32.59566 -8.12037 24941 ft 368 kts 194°
2026-05-08 21:36 32.57040 -8.12452 24414 ft 366 kts 194°
2026-05-08 21:36 32.54554 -8.12857 23894 ft 364 kts 194°
2026-05-08 21:36 32.52033 -8.13269 23367 ft 363 kts 194°
2026-05-08 21:37 32.49558 -8.13674 22814 ft 362 kts 194°
2026-05-08 21:37 32.47047 -8.14084 22259 ft 360 kts 193°
2026-05-08 21:37 32.44569 -8.14490 21738 ft 358 kts 193°
2026-05-08 21:37 32.42132 -8.14886 21227 ft 357 kts 193°
2026-05-08 21:38 32.39677 -8.15285 20693 ft 356 kts 193°
2026-05-08 21:38 32.37203 -8.15689 20156 ft 354 kts 192°
2026-05-08 21:38 32.34796 -8.16080 19668 ft 353 kts 192°
2026-05-08 21:38 32.32361 -8.16476 19155 ft 351 kts 192°
2026-05-08 21:39 32.29935 -8.16870 18641 ft 351 kts 192°
2026-05-08 21:39 32.27550 -8.17257 18143 ft 350 kts 192°
2026-05-08 21:39 32.25114 -8.17652 17629 ft 349 kts 191°
2026-05-08 21:39 32.22744 -8.18037 17125 ft 347 kts 191°
2026-05-08 21:40 32.20354 -8.18424 16646 ft 346 kts 191°
2026-05-08 21:40 32.17959 -8.18811 16175 ft 344 kts 191°
2026-05-08 21:40 32.15597 -8.19193 15699 ft 342 kts 190°
2026-05-08 21:41 32.10870 -8.18647 14760 ft 347 kts 165°
2026-05-08 21:41 32.08746 -8.17545 14310 ft 349 kts 158°
2026-05-08 21:41 32.06593 -8.16264 13835 ft 348 kts 156°
2026-05-08 21:41 32.04433 -8.14956 13382 ft 346 kts 156°
2026-05-08 21:42 32.02293 -8.13661 12911 ft 345 kts 156°
2026-05-08 21:42 32.00168 -8.12380 12429 ft 344 kts 156°
2026-05-08 21:42 31.98038 -8.11100 11953 ft 343 kts 156°
2026-05-08 21:42 31.95916 -8.09828 11458 ft 342 kts 156°
2026-05-08 21:43 31.93801 -8.08561 10984 ft 341 kts 156°
2026-05-08 21:43 31.91719 -8.07313 10668 ft 333 kts 156°
2026-05-08 21:43 31.89696 -8.06101 10491 ft 320 kts 155°
2026-05-08 21:43 31.87745 -8.04934 10347 ft 307 kts 156°
2026-05-08 21:44 31.85863 -8.03809 10207 ft 296 kts 155°
2026-05-08 21:44 31.84075 -8.02740 10040 ft 285 kts 155°
2026-05-08 21:44 31.82344 -8.01706 9893 ft 276 kts 155°
2026-05-08 21:44 31.80636 -8.00618 9490 ft 278 kts 148°
2026-05-08 21:45 31.79217 -7.99078 9132 ft 281 kts 130°
2026-05-08 21:45 31.78092 -7.97213 8798 ft 280 kts 127°
2026-05-08 21:45 31.76961 -7.95372 8454 ft 278 kts 129°
2026-05-08 21:45 31.75780 -7.93597 8097 ft 278 kts 130°
2026-05-08 21:46 31.74569 -7.91817 7765 ft 276 kts 130°
2026-05-08 21:46 31.73380 -7.90093 7417 ft 275 kts 130°
2026-05-08 21:46 31.72219 -7.88271 7029 ft 276 kts 128°
2026-05-08 21:46 31.71081 -7.86467 6673 ft 275 kts 127°
2026-05-08 21:47 31.69952 -7.84677 6342 ft 273 kts 127°
2026-05-08 21:47 31.68819 -7.82911 6007 ft 272 kts 128°
2026-05-08 21:47 31.67642 -7.81163 5713 ft 269 kts 129°
2026-05-08 21:47 31.66471 -7.79480 5364 ft 269 kts 132°
2026-05-08 21:48 31.65066 -7.78083 5117 ft 260 kts 153°
2026-05-08 21:48 31.63389 -7.77525 5017 ft 246 kts 182°
2026-05-08 21:48 31.61801 -7.78039 4982 ft 229 kts 217°
2026-05-08 21:48 31.60767 -7.79420 4931 ft 225 kts 240°
2026-05-08 21:49 31.59987 -7.80947 4914 ft 209 kts 238°
2026-05-08 21:49 31.59144 -7.82221 4704 ft 191 kts 236°
2026-05-08 21:49 31.58611 -7.83544 4496 ft 172 kts 261°
2026-05-08 21:49 31.58710 -7.84863 4355 ft 159 kts 284°
2026-05-08 21:50 31.58994 -7.86058 4200 ft 147 kts 285°
2026-05-08 21:50 31.59214 -7.87211 4021 ft 143 kts 279°
2026-05-08 21:50 31.59344 -7.88372 3843 ft 143 kts 277°
2026-05-08 21:50 31.59461 -7.89525 3603 ft 142 kts 277°
2026-05-08 21:51 31.59564 -7.90680 3419 ft 141 kts 277°
2026-05-08 21:51 31.59663 -7.91829 3241 ft 141 kts 276°
2026-05-08 21:51 31.59755 -7.92962 3077 ft 141 kts 277°
2026-05-08 21:51 31.59868 -7.94098 2886 ft 141 kts 278°
2026-05-08 21:52 31.59958 -7.95242 2678 ft 140 kts 276°
2026-05-08 21:52 31.60059 -7.96374 2496 ft 139 kts 277°
2026-05-08 21:52 31.60161 -7.97500 2289 ft 139 kts 275°
2026-05-08 21:52 31.60247 -7.98625 2132 ft 139 kts 276°
2026-05-08 21:53 31.60335 -7.99762 1935 ft 138 kts 278°
2026-05-08 21:53 31.60448 -8.00880 1770 ft 137 kts 279°
2026-05-08 21:53 31.60545 -8.01985 1607 ft 136 kts 274°
2026-05-08 21:53 31.60646 -8.03040 1544 ft 113 kts 273°
2026-05-08 21:54 31.60674 -8.03570 1539 ft 26 kts 277°
2026-05-08 21:54 31.60678 -8.03612 1538 ft 0 kts 275°
2026-05-08 21:54 31.60678 -8.03613 1538 ft 0 kts 273°
2026-05-08 21:54 31.60679 -8.03618 1538 ft 0 kts 270°
2026-05-08 21:55 31.60678 -8.03621 1538 ft 0 kts 258°
2026-05-08 21:55 31.60678 -8.03623 1538 ft 0 kts 256°
2026-05-08 21:56 31.60676 -8.03630 1538 ft 0 kts 229°
2026-05-08 21:56 31.60676 -8.03631 1538 ft 0 kts 229°
2026-05-08 21:56 31.60675 -8.03631 1538 ft 0 kts 227°
2026-05-08 21:56 31.60668 -8.03627 1538 ft 3 kts 77°
2026-05-08 21:57 31.60670 -8.03625 1538 ft 0 kts 34°
2026-05-08 21:57 31.60671 -8.03624 1538 ft 0 kts 34°
2026-05-08 21:58 31.60675 -8.03620 1538 ft 0 kts 54°
2026-05-08 21:58 31.60683 -8.03601 1538 ft 4 kts 72°
2026-05-08 21:58 31.60683 -8.03556 1539 ft 7 kts 92°
2026-05-08 21:58 31.60678 -8.03488 1540 ft 9 kts 96°
2026-05-08 21:59 31.60670 -8.03395 1540 ft 12 kts 96°
2026-05-08 21:59 31.60651 -8.03289 1542 ft 13 kts 111°
2026-05-08 21:59 31.60606 -8.03202 1544 ft 11 kts 126°
2026-05-08 21:59 31.60562 -8.03131 1546 ft 10 kts 126°
2026-05-08 22:00 31.60520 -8.03063 1547 ft 10 kts 126°
2026-05-08 22:00 31.60478 -8.02997 1548 ft 9 kts 126°
2026-05-08 22:00 31.60444 -8.02942 1550 ft 7 kts 126°
2026-05-08 22:00 31.60423 -8.02891 1551 ft 6 kts 105°
2026-05-08 22:01 31.60416 -8.02838 1552 ft 6 kts 97°
2026-05-08 22:01 31.60405 -8.02792 1553 ft 5 kts 135°
2026-05-08 22:01 31.60376 -8.02780 1554 ft 4 kts 175°
2026-05-08 22:01 31.60358 -8.02781 1554 ft 0 kts 185°